Location: Gisborne
(38.6530°S, 178.0040°E)
Time: 17:36:10
(UTC+13:00)

ISS - Pass Details

Date: 02 February 2019
Orbit: 403 x 411 km, 51.6° (Epoch: 17 February)

Event Time Altitude Azimuth Distance (km) Brightness Sun altitude
Exits shadow 04:31:08 40° 240° (WSW) 625 -3.1 -18.8°
Maximum altitude 04:31:36 44° 214° (SW) 593 -3.0 -18.7°
Drops below altitude 10° 04:34:51 10° 140° (SE) 1,499 0.3 -18.3°
Sets 04:37:01 0° 133° (SE) 2,364 1.8 -17.9°
